Location: Spondin
(51.8528°N, 111.6118°W)
Time: 17:51:31
(UTC+00:00)

Vanguard 2 Rocket - Pass Details

Date: 26 May 2022
Orbit: 553 x 3323 km, 32.9° (Epoch: 02 July)

Event Time Altitude Azimuth Distance (km) Brightness Sun altitude
Rises 20:27:26 0° 223° (SW) 7,302 12.0 57.0°
Reaches altitude 10° 20:33:23 10° 215° (SW) 6,235 11.9 56.5°
Maximum altitude 20:48:30 30° 164° (SSE) 4,165 11.1 55.2°
Drops below altitude 10° 20:59:51 10° 111° (ESE) 4,678 10.5 54.1°
Sets 21:03:30 0° 101° (E) 5,304 10.6 53.8°
